Regional Weather Roundup
Issued by NWS

Home | Current Version | Previous Version | Text Only | Print | Product List | Glossary On
Versions: 1 2 3 4 5 6 7 8 9 10 11 12 13 14 15 16 17 18 19 20 21 22 23 24 25 26 27 28 29 30 31 32 33 34 35 36 37 38 39 40 41 42 43 44 45 46 47 48 49 50
000
ASUS44 KLIX 201610
RWRLA
LOUISIANA WEATHER ROUNDUP
NATIONAL WEATHER SERVICE NEW ORLEANS LA
1000 AM CST SAT DEC 20 2014

NOTE: "FAIR" INDICATES FEW OR NO CLOUDS BELOW 12,000 FEET WITH NO
      SIGNIFICANT WEATHER AND/OR OBSTRUCTIONS TO VISIBILITY.
      SKY/WX - SKY CONDITION AND SIGNIFICANT WEATHER.
      TMP - AIR TEMPERATURE.    DP   - DEWPOINT TEMPERATURE.
      RH  - RELATIVE HUMIDITY.  PRES - PRESSURE.
      HX  - HEAT INDEX.         WCI  - WIND CHILL INDEX.

*  THESE STATIONS ARE NOT NWS OR FAA STATIONS AND ARE NOT UNDER
   NWS QUALITY CONTROL.

LAZ040-048-061>063-065-066-069-201700-
SOUTHEAST LOUISIANA

CITY           SKY/WX    TMP DP  RH WIND       PRES   REMARKS
N.O. AUDUBON     N/A     53  50  89 MISG        N/A
N.O. INTL ARPT CLOUDY    52  48  86 NE14      30.16R
N.O. LAKEFRONT CLOUDY    53  48  83 NE14      30.17R
N.O. DOWNTOWN* CLOUDY    52  46  82 N8        30.17R
SLIDELL        CLOUDY    51  47  86 N10       30.16R
BATON ROUGE    CLOUDY    49  46  90 NE7       30.19R
BOOTHVILLE     CLOUDY    55  53  93 NE10      30.13R
BELLE CHASSE   CLOUDY    53  49  86 NE8       30.15R
BOGALUSA*        N/A     50  46  84 NE10      30.20R
GALLIANO*      CLOUDY    54  52  92 MISG      30.14R
NEW ROADS*     CLOUDY    48  47  95 N9        30.20S
GONZALES*      CLOUDY    50  50  99 N8        30.17R
HAMMOND*       NOT AVBL
HOUMA*         CLOUDY    52  50  93 N14       30.15R FOG
PORT FOURCHON* CLOUDY    54  52  94 NE15G23   30.15S

$$

LAZ041-044-053-054-201700-
SOUTHWEST LOUISIANA

CITY           SKY/WX    TMP DP  RH WIND       PRES   REMARKS
LAKE CHARLES   CLOUDY    51  48  89 NE13      30.20R
LAFAYETTE      CLOUDY    49  48  97 N14       30.19R FOG
PATTERSON      CLOUDY    52  48  87 N10       30.17R
SALT POINT       N/A     56  50  80 VRB6      30.15R
NEW IBERIA     CLOUDY    51  48  89 N13       30.19R
CHENAULT AIRPK CLOUDY    48  46  93 NE9       30.21R

$$

LAZ027-028-201700-
CENTRAL LOUISIANA

CITY           SKY/WX    TMP DP  RH WIND       PRES   REMARKS
FORT POLK      CLOUDY    47  45  93 N8        30.22R
ALEXANDRIA INT CLOUDY    48  44  86 N8        30.22R
ALEXANDRIA     CLOUDY    46  43  89 VRB5      30.24R

$$

LAZ001-002-201700-
NORTHWEST LOUISIANA

CITY           SKY/WX    TMP DP  RH WIND       PRES   REMARKS
SHREVEPORT     CLOUDY    45  43  93 NE6       30.27R FOG
BARKSDALE AFB  NOT AVBL
DTN SHREVEPORT CLOUDY    43  41  93 NE7       30.27S FOG

$$

LAZ014-016-201700-
NORTHEAST LOUISIANA

CITY           SKY/WX    TMP DP  RH WIND       PRES   REMARKS
MONROE         MOSUNNY   47  42  83 N3        30.28R
TALLULAH       MOSUNNY   47  42  83 NE7       30.26R

$$



USA.gov is the U.S. government's official web portal to all federal, state and local government web resources and services.